{"data":{"norad_id":56040,"epoch":"2026-05-24T21:30:49.765248Z","epoch_age_seconds":83667,"freshness":"FRESH","line1":"1 56040U 23042BG  26144.89640932  .00000188  00000+0  16375-4 0  9996","line2":"2 56040  43.0037 320.6482 0001709 270.4392  89.6263 15.27574550174853","mean_motion":15.2757455,"eccentricity":0.0001709,"inclination_deg":43.0037,"raan_deg":320.6482,"arg_perigee_deg":270.4392,"mean_anomaly_deg":89.6263,"bstar":1.6375e-5,"rev_number":17485,"period_min":94.267085033591,"perigee_km":481.89283585602,"apogee_km":484.23799484158,"semimajor_km":6861.2024153488,"source":"CELESTRAK","updated_at":"2026-05-25T13:38:17.952626Z"}}